Regional Weather Roundup
Issued by NWS

Home | Current Version | Previous Version | Graphics & Text | Print | Product List | Glossary On
Versions: 1 2 3 4 5 6 7 8 9 10 11 12 13 14 15 16 17 18 19 20 21 22 23 24 25 26 27 28 29 30 31 32 33 34 35 36 37 38 39 40 41 42 43 44 45 46 47 48 49 50
000
ASUS43 KLMK 301410
RWRKY
KENTUCKY REGIONAL WEATHER ROUNDUP
NATIONAL WEATHER SERVICE LOUISVILLE KY
1000 AM EDT WED JUL 30 2014

NOTE "FAIR" INDICATES FEW OR NO CLOUDS BELOW 12,000 FEET
WITH NO SIGNIFICANT WEATHER AND/OR OBSTRUCTIONS TO VISIBILITY.

KYZ001>023-026-027-061>063-070>075-301500-
WESTERN AND SOUTH CENTRAL KENTUCKY

CITY           SKY/WX    TMP DP  RH WIND       PRES   REMARKS
PADUCAH        PTSUNNY   71  60  68 CALM      30.11S
HENDERSON      SUNNY     70  61  73 W5        30.10F
OWENSBORO      SUNNY     69  59  70 CALM      30.11S
HOPKINSVILLE   PTSUNNY   69  59  71 W3        30.13R
BOWLING GREEN  SUNNY     72  54  53 W3        30.13R
GLASGOW        SUNNY     67  59  74 CALM      30.13S
$$

KYZ024-025-028>034-038-045-046-053-301500-
NORTH CENTRAL KENTUCKY

CITY           SKY/WX    TMP DP  RH WIND       PRES   REMARKS
LOUISVILLE/SDF SUNNY     73  59  61 W5        30.10R
LOUISVILLE/LOU SUNNY     72  59  63 W3        30.11R
FORT KNOX      SUNNY     70  60  71 SW3       30.10S
$$

KYZ035>037-039>044-047>052-055>060-089>105-301500-
NORTHEAST KENTUCKY

CITY           SKY/WX    TMP DP  RH WIND       PRES   REMARKS
LEXINGTON      MOSUNNY   68  58  70 SW6       30.12R
COVINGTON      MOSUNNY   69  60  73 W7        30.08S
FRANKFORT      MOSUNNY   68  59  73 W5        30.10S
$$

KYZ054-064>069-076>088-106>120-301500-
SOUTHEAST KENTUCKY

CITY           SKY/WX    TMP DP  RH WIND       PRES   REMARKS
JACKSON        SUNNY     62  56  80 VRB3      30.13F
LONDON         SUNNY     64  55  72 S5        30.15R
SOMERSET       SUNNY     63  61  94 CALM      30.15S
MIDDLESBORO    CLOUDY    57  54  90 CALM      30.16S
MONTICELLO     SUNNY     67  59  75 CALM      30.15S HAZE
$$




USA.gov is the U.S. government's official web portal to all federal, state and local government web resources and services.